When you browse on this site, cookies collect data to enhance your experience and personalize the content and advertising you see.
Visit our Privacy Policy to learn more. By continuing to use the site, you agree to this use of cookies and data.
EN

Hourly Weather Gogolowice

Today, 20 September, Sunday

Time Temperature Precipitation Wind Pressure Humidity
00:00 +13°C° 0 mm 2 mps 754 mmHg 61%
01:00 +13°C° 0 mm 2 mps 754 mmHg 62%
02:00 +12°C° 0 mm 2 mps 754 mmHg 63%
03:00 +12°C° 0 mm 2 mps 753 mmHg 64%
04:00 +12°C° 0 mm 2 mps 753 mmHg 66%
05:00 +12°C° 0 mm 2 mps 753 mmHg 66%
06:00 +13°C° 0 mm 2 mps 753 mmHg 67%
07:00 +13°C° 0 mm 2 mps 754 mmHg 67%
08:00 +14°C° 0 mm 3 mps 753 mmHg 63%
09:00 +16°C° 0 mm 3 mps 753 mmHg 59%
10:00 +18°C° 0 mm 4 mps 753 mmHg 55%
11:00 +19°C° 0 mm 4 mps 753 mmHg 51%
12:00 +21°C° 0 mm 4 mps 753 mmHg 48%
13:00 +22°C° 0 mm 4 mps 753 mmHg 44%
14:00 +22°C° 0 mm 4 mps 752 mmHg 46%
15:00 +22°C° 0 mm 3 mps 752 mmHg 47%
16:00 +22°C° 0 mm 3 mps 752 mmHg 48%
17:00 +20°C° 0 mm 3 mps 752 mmHg 55%
18:00 +18°C° 0 mm 3 mps 752 mmHg 61%
19:00 +16°C° 0 mm 3 mps 752 mmHg 68%
20:00 +15°C° 0 mm 2 mps 752 mmHg 71%
21:00 +15°C° 0 mm 2 mps 752 mmHg 73%
22:00 +14°C° 0 mm 2 mps 752 mmHg 76%
23:00 +14°C° 0 mm 2 mps 752 mmHg 78%

Tomorrow, 21 September, Monday

Time Temperature Precipitation Wind Pressure Humidity
00:00 +13°C° 0 mm 2 mps 752 mmHg 79%
01:00 +13°C° 0 mm 1 mps 752 mmHg 81%
02:00 +13°C° 0 mm 1 mps 752 mmHg 81%
03:00 +13°C° 0 mm 1 mps 751 mmHg 81%
04:00 +12°C° 0 mm 1 mps 751 mmHg 81%
05:00 +13°C° 0 mm 1 mps 751 mmHg 79%
06:00 +14°C° 0 mm 1 mps 751 mmHg 76%
07:00 +14°C° 0 mm 1 mps 752 mmHg 73%
08:00 +17°C° 0 mm 2 mps 752 mmHg 65%
09:00 +19°C° 0 mm 2 mps 752 mmHg 57%
10:00 +21°C° 0 mm 2 mps 752 mmHg 50%
11:00 +24°C° 0 mm 2 mps 751 mmHg 46%
12:00 +25°C° 0 mm 3 mps 751 mmHg 43%
13:00 +26°C° 0 mm 3 mps 751 mmHg 39%
14:00 +26°C° 0 mm 3 mps 751 mmHg 41%
15:00 +26°C° 0 mm 3 mps 751 mmHg 42%
16:00 +26°C° 0 mm 3 mps 750 mmHg 43%
17:00 +24°C° 0 mm 2 mps 750 mmHg 49%
18:00 +21°C° 0 mm 2 mps 750 mmHg 54%
19:00 +19°C° 0 mm 2 mps 750 mmHg 59%
20:00 +19°C° 0 mm 2 mps 750 mmHg 60%
21:00 +18°C° 0 mm 2 mps 750 mmHg 61%
22:00 +18°C° 0 mm 2 mps 750 mmHg 61%
23:00 +17°C° 0 mm 2 mps 750 mmHg 62%

Day after tomorrow, 22 September, Tuesday

Time Temperature Precipitation Wind Pressure Humidity
00:00 +17°C° 0 mm 2 mps 750 mmHg 63%
01:00 +16°C° 0 mm 2 mps 749 mmHg 63%
02:00 +16°C° 0 mm 2 mps 749 mmHg 63%
03:00 +16°C° 0 mm 2 mps 749 mmHg 63%
04:00 +15°C° 0 mm 2 mps 749 mmHg 62%
05:00 +16°C° 0 mm 3 mps 749 mmHg 62%
06:00 +16°C° 0 mm 3 mps 749 mmHg 61%
07:00 +17°C° 0 mm 3 mps 749 mmHg 60%
08:00 +19°C° 0 mm 3 mps 748 mmHg 55%
09:00 +21°C° 0 mm 4 mps 748 mmHg 49%
10:00 +23°C° 0 mm 4 mps 748 mmHg 43%
11:00 +25°C° 0 mm 5 mps 748 mmHg 43%
12:00 +26°C° 0 mm 5 mps 748 mmHg 42%
13:00 +27°C° 0 mm 5 mps 747 mmHg 41%
14:00 +27°C° 0 mm 5 mps 747 mmHg 43%
15:00 +27°C° 0 mm 4 mps 746 mmHg 44%
16:00 +27°C° 0 mm 4 mps 746 mmHg 45%
17:00 +25°C° 0 mm 4 mps 746 mmHg 50%
18:00 +22°C° 0 mm 3 mps 746 mmHg 54%
19:00 +20°C° 0 mm 3 mps 745 mmHg 58%
20:00 +20°C° 0 mm 3 mps 745 mmHg 59%
21:00 +19°C° 0 mm 3 mps 745 mmHg 61%
22:00 +18°C° 0 mm 2 mps 745 mmHg 62%
23:00 +18°C° 0 mm 2 mps 745 mmHg 61%

23 September, Wednesday

Time Temperature Precipitation Wind Pressure Humidity
00:00 +18°C° 0 mm 2 mps 744 mmHg 60%
01:00 +18°C° 0 mm 2 mps 744 mmHg 60%
02:00 +17°C° 0 mm 2 mps 744 mmHg 60%
03:00 +17°C° 0 mm 3 mps 743 mmHg 59%
04:00 +17°C° 0 mm 3 mps 743 mmHg 59%
05:00 +17°C° 0 mm 3 mps 743 mmHg 61%
06:00 +17°C° 0 mm 3 mps 743 mmHg 62%
07:00 +18°C° 0 mm 3 mps 743 mmHg 64%
08:00 +19°C° 0 mm 2 mps 743 mmHg 61%
09:00 +21°C° 0 mm 2 mps 743 mmHg 58%
10:00 +24°C° 0 mm 2 mps 743 mmHg 56%
11:00 +24°C° 0.2 mm 2 mps 743 mmHg 55%
12:00 +25°C° 0.2 mm 2 mps 743 mmHg 55%
13:00 +25°C° 0.2 mm 1 mps 743 mmHg 54%
14:00 +25°C° 0 mm 1 mps 742 mmHg 55%
15:00 +25°C° 0 mm 1 mps 742 mmHg 56%
16:00 +25°C° 0 mm 1 mps 742 mmHg 57%
17:00 +23°C° 0.3 mm 1 mps 742 mmHg 64%
18:00 +22°C° 0.3 mm 1 mps 742 mmHg 70%
19:00 +20°C° 0.3 mm 1 mps 742 mmHg 77%
20:00 +20°C° 0 mm 1 mps 742 mmHg 78%
21:00 +20°C° 0 mm 1 mps 742 mmHg 79%
22:00 +19°C° 0 mm 1 mps 742 mmHg 81%
23:00 +19°C° 0 mm 1 mps 742 mmHg 81%

24 September, Thursday

Time Temperature Precipitation Wind Pressure Humidity
00:00 +18°C° 0 mm 2 mps 742 mmHg 82%
01:00 +17°C° 0 mm 2 mps 742 mmHg 82%
02:00 +17°C° 0 mm 2 mps 742 mmHg 83%
03:00 +17°C° 0 mm 2 mps 742 mmHg 84%
04:00 +17°C° 0 mm 2 mps 743 mmHg 86%
05:00 +17°C° 0.1 mm 2 mps 743 mmHg 84%
06:00 +17°C° 0.1 mm 2 mps 743 mmHg 83%
07:00 +18°C° 0.1 mm 2 mps 743 mmHg 81%
08:00 +19°C° 0 mm 2 mps 744 mmHg 74%
09:00 +21°C° 0 mm 2 mps 744 mmHg 67%
10:00 +24°C° 0 mm 3 mps 744 mmHg 60%
11:00 +24°C° 0 mm 3 mps 744 mmHg 56%
12:00 +25°C° 0 mm 2 mps 744 mmHg 52%
13:00 +26°C° 0 mm 2 mps 744 mmHg 48%
14:00 +26°C° 0.1 mm 2 mps 744 mmHg 50%
15:00 +25°C° 0.1 mm 2 mps 744 mmHg 51%
16:00 +25°C° 0.1 mm 2 mps 744 mmHg 53%
17:00 +23°C° 0 mm 1 mps 744 mmHg 59%
18:00 +22°C° 0 mm 1 mps 743 mmHg 65%
19:00 +20°C° 0 mm 1 mps 743 mmHg 71%
20:00 +20°C° 0 mm 1 mps 743 mmHg 73%
21:00 +18°C° 0 mm 2 mps 742 mmHg 75%
22:00 +18°C° 0 mm 2 mps 742 mmHg 76%
23:00 +18°C° 0 mm 3 mps 741 mmHg 77%

25 September, Friday

Time Temperature Precipitation Wind Pressure Humidity
00:00 +17°C° 0 mm 3 mps 740 mmHg 78%
01:00 +17°C° 0 mm 4 mps 739 mmHg 79%
02:00 +16°C° 0 mm 5 mps 738 mmHg 78%
03:00 +17°C° 0 mm 5 mps 737 mmHg 77%
04:00 +17°C° 0 mm 6 mps 735 mmHg 76%
05:00 +17°C° 0 mm 5 mps 735 mmHg 75%
06:00 +17°C° 0 mm 5 mps 735 mmHg 75%
07:00 +17°C° 0 mm 5 mps 734 mmHg 75%
08:00 +16°C° 0.4 mm 5 mps 734 mmHg 77%
09:00 +16°C° 0.4 mm 6 mps 735 mmHg 79%
10:00 +15°C° 0.4 mm 7 mps 735 mmHg 80%
11:00 +14°C° 0.6 mm 7 mps 735 mmHg 81%
12:00 +12°C° 0.6 mm 7 mps 736 mmHg 83%
13:00 +11°C° 0.6 mm 7 mps 736 mmHg 84%
14:00 +11°C° 0.1 mm 6 mps 736 mmHg 81%
15:00 +12°C° 0.1 mm 5 mps 737 mmHg 79%
16:00 +12°C° 0.1 mm 4 mps 737 mmHg 77%
17:00 +12°C° 0 mm 3 mps 737 mmHg 77%
18:00 +13°C° 0 mm 2 mps 737 mmHg 78%
19:00 +13°C° 0 mm 1 mps 737 mmHg 78%
20:00 +13°C° 0.1 mm 2 mps 737 mmHg 80%
21:00 +12°C° 0.1 mm 2 mps 736 mmHg 81%
22:00 +12°C° 0.1 mm 2 mps 736 mmHg 82%
23:00 +11°C° 1.5 mm 3 mps 736 mmHg 85%
Show more